Location: D�pe
(52.6057°N, 8.1808°E)
Time: 14:53:36
(UTC+00:00)

Cosmos 1939 Rocket - Pass Details

Date: 29 October 2020
Orbit: 532 x 584 km, 97.4° (Epoch: 29 November)

Event Time Altitude Azimuth Distance (km) Brightness Sun altitude
Rises 16:56:14 0° 150° (SSE) 2,723 6.2 -8.7°
Reaches altitude 10° 16:58:25 10° 144° (SE) 1,824 5.2 -9.0°
Maximum altitude 17:02:12 48° 70° (ENE) 724 3.0 -9.6°
Drops below altitude 10° 17:05:59 10° 356° (N) 1,814 5.4 -10.2°
Sets 17:08:08 0° 351° (N) 2,705 6.4 -10.5°
